Location: Augirein
(42.9320°N, 0.9181°E)
Time: 08:06:44
(UTC+00:00)

X-37B - Pass Details

Date: 23 September 2021
Orbit: 385 x 389 km, 45.0° (Epoch: 17 October)

Event Time Altitude Azimuth Distance (km) Brightness Sun altitude
Exits shadow 03:59:56 33° 157° (SSE) 679 1.8 -19.7°
Maximum altitude 04:00:04 33° 151° (SSE) 676 1.8 -19.6°
Drops below altitude 10° 04:02:58 10° 85° (E) 1,414 4.6 -19.1°
Sets 04:05:10 0° 76° (ENE) 2,272 6.2 -18.8°
